Wormit, United Kingdom

7:14 PM GMT on February 22, 2017 (GMT +0000)
Dundee

Weather History for EGPN - April, 2013

Change the Weather History Date:

Monday, April 1, 2013

  Actual Average Record
Temperature  
Mean Temperature 37 °F -  
Max Temperature 41 °F 51 °F 59 °F (2012)
Min Temperature 33 °F 42 °F 33 °F (2013)
Degree Days  
Heating Degree Days 28    
Moisture  
Dew Point 25 °F    
Average Humidity 60    
Maximum Humidity 70    
Minimum Humidity 52    
Precipitation  
Precipitation 0.00 in - - ()
Sea Level Pressure  
Sea Level Pressure 30.06 in    
Wind  
Wind Speed 7 mph ()    
Max Wind Speed 12 mph    
Max Gust Speed -    
Visibility 6.2 miles    
Events      
Averages and records for this station are not official NWS values.
T = Trace of Precipitation, MM = Missing Value Source: Averaged Metar Reports

Daily Weather History Graph

Daily Weather History Graph

Search for Another Location

Airport or City:

Trip Planner

Search our weather history database for the weather conditions in past years. The results will help you decide how hot, cold, wet, or windy it might be!

Date:

Astronomy

Apr. 01, 2013 Rise Set
Actual Time 6:41 AM BST 7:51 PM BST
Civil Twilight 6:03 AM BST 8:29 PM BST
Nautical Twilight 5:16 AM BST 9:17 PM BST
Astronomical Twilight 4:24 AM BST 10:10 PM BST
Moon 1:35 AM BST (4/1) 9:21 AM BST (4/1)
Length of Visible Light 14h 26m
Length of Day
13h 09m
Waning Gibbous, 69% of the Moon is Illuminated
Apr 1
Waning Gibbous
Apr 3
Last Quarter
Apr 10
New
Apr 18
First Quarter
Apr 25
Full

Hourly Weather History & Observations

Time (BST) Temp. Windchill Dew Point Humidity Pressure Visibility Wind Dir Wind Speed Gust Speed Precip Events Conditions
6:20 AM 33.8 °F 29.6 °F 24.8 °F 70% 30.04 in 6.2 mi East 4.6 mph - N/A   Mostly Cloudy
6:50 AM 35.6 °F 30.7 °F 24.8 °F 65% 30.04 in 6.2 mi ESE 5.8 mph - N/A   Mostly Cloudy
7:20 AM 35.6 °F 31.7 °F 26.6 °F 70% 30.04 in 6.2 mi SE 4.6 mph - N/A   Mostly Cloudy
7:50 AM 37.4 °F 32.8 °F 26.6 °F 65% 30.04 in 6.2 mi SE 5.8 mph - N/A   Mostly Cloudy
8:20 AM 35.6 °F 29.9 °F 24.8 °F 65% 30.04 in 6.2 mi SE 6.9 mph - N/A   Mostly Cloudy
8:50 AM 35.6 °F 30.7 °F 24.8 °F 65% 30.06 in 6.2 mi East 5.8 mph - N/A   Mostly Cloudy
9:20 AM 37.4 °F 30.8 °F 24.8 °F 60% 30.06 in 6.2 mi ESE 9.2 mph - N/A   Mostly Cloudy
9:50 AM 37.4 °F 30.3 °F 24.8 °F 60% 30.06 in 6.2 mi ESE 10.4 mph - N/A   Mostly Cloudy
10:20 AM 37.4 °F 31.4 °F 24.8 °F 60% 30.06 in 6.2 mi ESE 8.1 mph - N/A   Mostly Cloudy
10:50 AM 37.4 °F 32.1 °F 24.8 °F 60% 30.06 in 6.2 mi ESE 6.9 mph - N/A   Mostly Cloudy
11:20 AM 39.2 °F 32.0 °F 23.0 °F 52% 30.06 in 6.2 mi East 11.5 mph - N/A   Mostly Cloudy
11:50 AM 39.2 °F 33.6 °F 24.8 °F 56% 30.06 in 6.2 mi East 8.1 mph - N/A   Mostly Cloudy
12:20 PM 41.0 °F 34.7 °F 26.6 °F 57% 30.06 in 6.2 mi ESE 10.4 mph - N/A   Mostly Cloudy
12:50 PM 39.2 °F 32.5 °F 24.8 °F 56% 30.06 in 6.2 mi ESE 10.4 mph - N/A   Mostly Cloudy
1:20 PM 39.2 °F 33.0 °F 23.0 °F 52% 30.06 in 6.2 mi East 9.2 mph - N/A   Mostly Cloudy
1:50 PM 39.2 °F 33.0 °F 26.6 °F 61% 30.06 in 6.2 mi ESE 9.2 mph - N/A   Mostly Cloudy
2:20 PM 41.0 °F 35.2 °F 24.8 °F 53% 30.06 in 6.2 mi East 9.2 mph - N/A   Mostly Cloudy
2:50 PM 39.2 °F 32.5 °F 24.8 °F 56% 30.06 in 6.2 mi East 10.4 mph - N/A   Mostly Cloudy
3:20 PM 41.0 °F 35.2 °F 24.8 °F 53% 30.06 in 6.2 mi East 9.2 mph - N/A   Mostly Cloudy
3:50 PM 41.0 °F 34.3 °F 24.8 °F 53% 30.06 in 6.2 mi East 11.5 mph - N/A   Mostly Cloudy
4:20 PM 41.0 °F 34.7 °F 26.6 °F 57% 30.06 in 6.2 mi East 10.4 mph - N/A   Mostly Cloudy
4:50 PM 41.0 °F 34.3 °F 26.6 °F 57% 30.06 in 6.2 mi East 11.5 mph - N/A   Mostly Cloudy
5:20 PM 39.2 °F 32.5 °F 26.6 °F 61% 30.06 in 6.2 mi East 10.4 mph - N/A   Mostly Cloudy
5:50 PM 39.2 °F 32.0 °F 24.8 °F 56% 30.06 in 6.2 mi East 11.5 mph - N/A   Mostly Cloudy
6:20 PM 39.2 °F 32.5 °F 26.6 °F 61% 30.06 in 6.2 mi East 10.4 mph - N/A   Mostly Cloudy
6:50 PM 37.4 °F 30.8 °F 24.8 °F 60% 30.06 in 6.2 mi East 9.2 mph - N/A   Mostly Cloudy
7:20 PM 39.2 °F 32.0 °F 26.6 °F 61% 30.09 in 6.2 mi East 11.5 mph - N/A   Mostly Cloudy
7:50 PM 37.4 °F 31.4 °F 26.6 °F 65% 30.09 in 6.2 mi East 8.1 mph - N/A   Mostly Cloudy
8:20 PM 37.4 °F 30.3 °F 24.8 °F 60% 30.09 in 6.2 mi East 10.4 mph - N/A   Mostly Cloudy
8:50 PM 37.4 °F 31.4 °F 24.8 °F 60% 30.09 in 6.2 mi East 8.1 mph - N/A   Mostly Cloudy
9:20 PM 37.4 °F 31.4 °F 24.8 °F 60% 30.09 in 6.2 mi East 8.1 mph - N/A   Mostly Cloudy
9:50 PM 37.4 °F 31.4 °F 24.8 °F 60% 30.09 in 6.2 mi East 8.1 mph - N/A   Mostly Cloudy